Wind_Speed
86 78 73 75 68 69 67 66 61 64 66 65 60 61 64 65 65 68 66 68 70 69 77 79 78 73 78 81 80 83 84 84 87 89 87 86 83 77 78 81 89 84 89
81 81 80 72 70 68 74 75 75 74 67 71 68 71 68 69 67 70 74 75 82 87 85 87 80 77 84 86 89 89 94 96 86 93 79 79 78 84 85 82 94 94 106
60 77 79 84 82 84 87 73 73 77 74 78 79 75 77 81 82 85 79 87 81 80 84 84 86 90 97 99 100 95 96 92 88 93 80 81 77 88 92 97 105 105 110
49 59 74 83 85 84 80 84 78 82 80 79 73 72 76 78 78 86 84 87 90 91 99 101 103 106 107 105 101 90 82 80 89 85 85 94 94 97 111 113 106 106 112
3 30 68 76 82 86 91 86 88 85 86 89 89 90 83 85 81 90 94 93 98 101 99 98 88 84 86 83 75 80 82 87 93 96 98 102 106 108 106 104 110 106 101
22 10 8 35 78 83 87 93 99 97 103 97 101 101 101 102 105 105 110 109 111 89 94 87 78 81 78 83 87 92 96 100 103 104 102 100 101 102 93 92 99 98 96
25 23 18 7 4 15 34 56 81 96 93 95 94 98 104 108 101 107 112 99 94 96 90 87 87 86 88 88 92 91 92 98 102 101 96 90 89 82 84 92 88 97 97
27 24 22 20 17 15 13 13 16 22 28 35 53 71 68 61 58 59 66 63 69 75 76 76 78 81 84 85 85 86 88 89 89 87 86 84 83 86 84 86 85 86 85
26 26 23 23 22 21 21 22 22 24 26 28 30 34 38 42 45 47 50 52 58 63 66 69 72 74 75 77 79 79 80 80 80 79 79 78 75 78 79 79 79 79 80
28 27 25 23 24 25 25 26 27 28 31 34 37 39 41 43 44 46 48 50 54 55 56 57 59 61 65 68 70 72 73 73 73 72 71 71 72 72 73 74 76 78 78
32 30 28 27 27 28 29 32 33 32 32 33 35 40 44 47 49 53 55 57 58 58 56 57 59 60 60 62 64 67 67 67 66 66 67 67 67 69 72 73 75 75 73
35 33 32 31 31 30 32 35 37 39 39 38 39 40 42 45 49 52 57 58 60 61 62 62 60 59 57 58 60 63 64 64 64 65 65 66 68 69 70 71 71 71 72
36 35 35 36 37 36 37 39 40 41 42 45 45 46 46 47 49 52 56 58 60 62 64 62 59 57 55 55 57 59 60 61 62 63 65 66 66 67 69 70 70 71 71
38 37 37 39 42 41 41 42 45 46 45 47 50 52 52 52 55 57 57 58 61 62 62 60 57 56 54 53 54 55 56 58 60 62 63 64 65 67 68 69 70 70 69
39 39 40 42 43 45 45 46 46 47 48 50 52 54 56 57 59 59 59 62 62 62 58 57 55 54 53 51 53 53 55 57 58 60 62 63 65 67 68 69 69 68 71
41 38 40 42 42 45 46 46 48 48 50 52 56 57 58 59 62 62 62 64 65 63 60 56 55 54 52 51 52 53 55 56 58 60 61 63 65 66 66 65 65 67 63
31 37 41 42 45 46 46 46 48 51 52 55 59 62 63 64 66 66 66 66 65 63 59 57 55 53 52 52 53 54 55 57 59 60 61 62 63 63 61 63 61 58 63
31 36 39 41 43 44 46 49 52 54 56 59 62 65 63 64 65 67 67 65 63 60 58 56 54 52 52 54 55 55 57 58 60 60 61 61 58 57 60 57 55 60 65
41 42 45 42 42 46 49 52 55 57 57 56 60 63 64 65 65 63 63 61 61 59 56 54 52 52 53 55 55 55 57 59 59 59 56 52 53 56 52 53 58 61 65
41 41 49 50 45 48 50 51 53 57 59 59 62 64 63 62 62 62 62 61 58 56 55 53 52 52 54 55 55 55 57 57 54 50 47 51 51 48 50 55 58 61 55
48 59 56 47 46 52 55 56 57 58 60 59 60 62 61 61 61 61 60 57 57 56 55 55 54 54 54 55 54 54 52 48 45 44 48 47 43 46 51 55 58 53 47
52 50 45 50 53 55 54 57 60 61 61 60 55 60 64 64 63 61 60 58 57 57 55 55 55 54 53 51 49 46 43 40 41 44 44 40 41 47 50 53 52 45 41
48 56 62 61 57 56 57 57 59 59 57 58 60 58 58 56 54 53 52 52 52 52 52 52 50 48 45 43 40 36 36 40 41 41 37 38 41 46 48 51 48 41 38
58 61 51 56 59 59 58 57 56 56 54 56 55 53 51 48 45 44 44 45 45 44 43 41 40 39 36 33 32 35 38 39 39 36 34 36 40 43 46 48 47 40 36
49 59 62 65 60 57 58 55 54 53 52 52 48 46 44 42 40 39 38 37 35 34 34 33 31 29 29 31 35 37 38 37 35 33 33 35 39 41 43 44 46 41 37
59 58 61 58 60 58 55 53 51 48 49 49 44 41 39 36 34 32 30 29 28 26 24 26 28 30 32 34 37 37 36 35 33 32 32 35 38 40 40 42 42 44 38
Wind_Direction
200 205 208 212 215 223 230 232 237 239 245 243 245 253 259 263 267 268 268 267 274 272 278 282 281 277 289 288 284 287 290 290 293 293 293 295 297 295 296 298 298 295 302
206 213 216 218 218 227 233 237 240 242 245 247 251 255 256 261 267 270 276 274 278 277 281 280 282 282 284 287 288 287 286 292 293 299 293 293 292 292 298 292 295 298 300
220 219 216 219 223 223 223 230 241 245 250 254 258 256 258 261 265 271 276 273 275 277 276 279 279 283 286 288 289 295 293 294 295 292 293 299 291 293 291 291 293 297 298
233 233 227 227 229 232 234 240 238 241 249 251 249 254 256 260 268 270 270 272 274 280 282 278 279 284 284 286 290 291 289 288 291 291 288 292 290 289 293 293 296 298 299
338 237 236 239 235 234 240 241 241 244 246 247 253 252 256 257 261 267 270 269 270 274 282 285 285 287 285 284 284 283 284 287 288 289 289 291 290 293 294 294 297 297 296
37 63 242 242 237 237 240 243 246 246 247 256 252 256 260 261 260 261 266 268 275 276 277 279 275 280 273 272 278 280 287 287 290 289 290 293 291 292 293 293 295 295 297
10 12 15 16 206 229 245 249 251 254 258 261 260 262 265 264 269 267 262 270 272 276 280 280 278 279 280 281 283 285 288 289 288 288 288 288 290 292 290 296 289 290 292
354 353 349 347 343 331 312 288 267 256 258 258 259 263 269 269 269 271 270 276 279 281 283 283 283 283 284 284 285 286 287 287 286 288 289 290 288 291 292 292 292 292 294
338 339 337 332 326 325 323 316 306 297 294 292 287 283 282 282 283 284 285 286 285 285 285 284 283 282 283 283 284 285 285 286 286 287 289 289 290 291 292 293 294 296 297
329 327 325 320 315 311 310 310 307 303 298 293 289 288 286 285 285 285 285 284 284 287 290 290 294 291 286 284 284 284 284 285 286 287 287 289 290 291 293 294 296 297 296
324 318 316 313 307 305 303 301 298 295 295 297 297 296 295 296 296 295 294 294 294 294 297 299 300 295 290 287 286 285 285 286 287 287 289 290 291 293 294 295 296 297 298
315 313 309 306 302 297 298 303 300 295 291 292 293 296 298 298 295 294 294 294 294 296 298 302 302 297 293 290 288 287 287 287 287 287 288 290 292 293 294 297 299 299 300
308 308 306 306 302 299 297 300 304 301 294 291 292 293 295 298 297 294 292 292 295 297 301 304 302 299 295 292 289 287 287 286 286 288 290 291 293 295 298 300 301 301 302
309 302 302 302 302 301 300 299 301 303 302 296 293 292 293 294 296 295 295 295 297 301 304 304 302 299 296 293 291 289 287 287 287 289 291 293 296 298 300 301 302 303 303
308 299 296 296 297 299 299 299 300 300 302 299 297 294 294 293 296 297 296 297 300 306 305 303 303 301 297 295 291 288 288 289 291 294 295 297 299 301 302 303 304 304 305
307 300 297 296 295 297 299 299 299 301 302 299 298 297 297 295 296 295 296 298 302 306 306 304 304 301 297 294 291 290 290 292 293 295 298 300 302 303 304 304 304 306 307
306 313 303 295 293 295 297 299 300 301 301 298 296 296 296 295 295 296 297 299 303 303 303 304 303 300 297 293 291 291 291 292 295 299 302 303 304 304 304 305 307 308 310
325 332 320 302 299 297 298 298 298 298 297 296 295 295 297 297 297 298 300 302 301 302 303 304 303 299 295 294 292 293 295 296 300 303 304 304 304 305 306 308 310 312 313
316 316 322 307 300 298 296 295 294 294 295 295 296 297 299 299 300 300 300 301 302 303 303 302 300 297 296 295 295 296 299 301 302 303 303 304 305 307 310 312 314 316 315
315 312 315 311 298 294 294 295 296 298 299 299 298 298 299 298 298 298 299 301 301 302 302 301 299 298 296 297 299 299 301 302 304 303 305 306 310 312 315 317 318 318 317
312 311 310 305 303 299 302 301 301 300 299 301 301 301 300 298 298 298 297 297 299 299 299 299 299 297 299 299 301 301 303 303 303 306 307 311 313 318 321 322 322 320 318
309 307 312 309 304 304 303 305 305 304 305 304 302 300 299 297 295 294 294 296 296 295 295 296 296 298 300 299 300 302 302 303 306 308 311 313 317 323 325 327 327 324 323
304 302 309 308 308 305 305 307 306 305 304 303 305 303 301 298 295 294 294 293 292 292 293 295 297 298 297 299 301 301 302 305 306 310 311 315 322 329 329 333 332 329 327
302 301 310 313 313 309 306 307 306 304 303 307 308 305 302 299 297 294 293 293 294 295 296 296 296 298 300 300 302 303 305 306 309 310 311 317 325 330 334 338 340 335 333
311 318 315 313 312 310 309 308 307 307 308 310 307 305 303 301 299 298 297 297 297 296 297 299 299 301 302 303 304 304 305 308 309 308 310 318 324 329 335 340 345 343 339
306 313 314 314 313 313 311 311 312 311 312 314 308 304 304 303 301 299 298 299 300 300 303 305 305 306 305 306 305 305 306 307 307 307 311 317 322 327 333 340 345 350 345
Height
10644 10650 10661 10664 10673 10679 10682 10686 10689 10690 10694 10698 10700 10702 10703 10706 10708 10708 10708 10709 10710 10708 10709 10708 10706 10705 10700 10696 10694 10691 10689 10682 10675 10672 10666 10663 10658 10652 10646 10640 10636 10630 10622
10647 10651 10657 10672 10675 10674 10679 10679 10680 10684 10688 10688 10693 10693 10692 10693 10696 10696 10695 10693 10694 10695 10691 10688 10688 10686 10682 10680 10675 10669 10666 10661 10654 10651 10645 10640 10637 10631 10622 10615 10609 10605 10597
10641 10649 10658 10662 10660 10659 10660 10669 10674 10675 10681 10682 10682 10682 10683 10685 10685 10684 10682 10679 10680 10676 10673 10671 10667 10664 10660 10657 10653 10648 10643 10637 10633 10629 10622 10619 10612 10608 10601 10594 10587 10579 10574
10634 10640 10649 10654 10657 10661 10663 10664 10668 10667 10668 10669 10669 10670 10672 10670 10672 10669 10668 10666 10665 10663 10655 10650 10648 10645 10641 10636 10634 10625 10623 10618 10614 10607 10602 10597 10591 10584 10577 10569 10560 10550 10544
10630 10632 10638 10640 10646 10652 10654 10657 10657 10657 10657 10658 10659 10656 10659 10658 10659 10657 10653 10649 10645 10642 10637 10631 10626 10622 10618 10615 10612 10611 10605 10601 10596 10589 10582 10574 10566 10557 10548 10537 10530 10521 10516
10634 10633 10630 10628 10635 10641 10643 10644 10644 10645 10645 10641 10646 10645 10645 10642 10641 10641 10636 10632 10626 10621 10618 10614 10611 10610 10601 10598 10591 10588 10583 10578 10571 10565 10557 10550 10540 10531 10521 10512 10503 10495 10491
10631 10629 10627 10627 10629 10630 10629 10628 10627 10628 10624 10623 10624 10624 10622 10626 10619 10615 10617 10613 10608 10607 10600 10597 10593 10590 10583 10578 10569 10561 10557 10552 10546 10540 10533 10525 10517 10508 10499 10494 10486 10476 10468
10628 10627 10625 10624 10623 10622 10620 10619 10617 10615 10612 10609 10609 10609 10608 10607 10601 10595 10593 10591 10588 10584 10582 10578 10572 10566 10559 10552 10546 10540 10532 10529 10524 10517 10512 10505 10499 10490 10481 10473 10464 10454 10447
10628 10625 10622 10620 10619 10617 10614 10612 10610 10607 10604 10600 10599 10598 10597 10593 10588 10584 10579 10575 10574 10572 10568 10562 10555 10548 10539 10531 10526 10518 10513 10509 10504 10497 10490 10484 10478 10471 10461 10453 10444 10433 10424
10623 10620 10618 10616 10613 10610 10608 10605 10602 10599 10596 10594 10593 10590 10586 10581 10577 10572 10568 10564 10562 10557 10551 10544 10535 10526 10519 10512 10506 10500 10496 10489 10484 10479 10472 10466 10461 10453 10444 10434 10425 10417 10406
10618 10614 10611 10608 10605 10602 10600 10598 10595 10591 10588 10584 10580 10576 10571 10566 10561 10556 10552 10549 10543 10538 10532 10525 10518 10509 10501 10494 10488 10481 10478 10472 10466 10460 10455 10449 10442 10435 10426 10417 10407 10398 10388
10611 10608 10604 10601 10598 10595 10592 10589 10586 10582 10577 10573 10569 10564 10559 10554 10550 10545 10540 10535 10529 10522 10515 10507 10499 10491 10484 10477 10472 10465 10460 10455 10449 10444 10438 10432 10425 10417 10408 10399 10389 10378 10368
10601 10598 10595 10591 10588 10586 10582 10579 10575 10571 10566 10562 10558 10554 10549 10545 10539 10534 10527 10521 10515 10506 10497 10489 10482 10475 10467 10462 10456 10450 10444 10440 10434 10428 10421 10414 10405 10397 10389 10380 10370 10360 10352
10592 10588 10584 10580 10577 10574 10570 10566 10562 10558 10553 10549 10544 10540 10536 10530 10525 10518 10511 10504 10496 10489 10482 10473 10465 10458 10451 10445 10439 10434 10429 10424 10418 10412 10404 10396 10388 10379 10370 10361 10352 10342 10332
10580 10576 10572 10568 10564 10561 10557 10553 10549 10545 10541 10536 10531 10526 10521 10514 10507 10500 10492 10485 10479 10472 10465 10457 10450 10443 10436 10430 10424 10419 10414 10408 10402 10394 10386 10379 10371 10362 10352 10343 10333 10323 10313
10568 10563 10558 10555 10552 10547 10543 10539 10535 10530 10526 10520 10514 10508 10503 10497 10490 10483 10476 10469 10462 10455 10448 10441 10434 10427 10420 10414 10409 10404 10398 10392 10385 10378 10371 10363 10354 10345 10336 10328 10318 10308 10296
10559 10554 10547 10543 10538 10533 10529 10525 10520 10516 10511 10505 10497 10491 10486 10480 10473 10466 10458 10452 10446 10439 10432 10425 10418 10411 10405 10398 10393 10388 10383 10377 10370 10363 10356 10348 10339 10330 10322 10313 10304 10293 10281
10551 10545 10539 10534 10528 10522 10517 10512 10506 10501 10496 10489 10481 10472 10468 10462 10455 10449 10443 10436 10429 10422 10416 10409 10402 10395 10389 10384 10379 10374 10368 10361 10354 10347 10340 10333 10325 10316 10308 10298 10288 10277 10265
10540 10534 10529 10521 10515 10509 10504 10497 10491 10484 10478 10472 10463 10455 10451 10445 10438 10431 10425 10419 10413 10406 10399 10393 10387 10382 10376 10371 10365 10359 10352 10346 10340 10333 10326 10319 10312 10304 10295 10285 10274 10263 10249
10527 10521 10514 10507 10501 10494 10488 10481 10474 10467 10460 10454 10446 10438 10434 10427 10421 10415 10409 10403 10397 10390 10384 10379 10373 10367 10362 10357 10351 10345 10338 10332 10326 10320 10313 10307 10299 10291 10282 10272 10260 10248 10236
10517 10510 10502 10495 10487 10480 10472 10464 10458 10450 10442 10436 10429 10421 10415 10409 10403 10397 10391 10387 10382 10376 10370 10364 10358 10353 10348 10343 10338 10331 10325 10319 10314 10308 10301 10295 10287 10280 10270 10259 10247 10235 10224
10506 10499 10492 10485 10475 10466 10458 10449 10440 10432 10424 10417 10411 10403 10395 10389 10383 10378 10374 10370 10365 10360 10355 10350 10344 10339 10334 10329 10324 10319 10313 10308 10303 10297 10291 10284 10277 10269 10259 10248 10236 10224 10215
10495 10486 10478 10471 10461 10451 10442 10432 10423 10415 10407 10400 10393 10384 10376 10370 10364 10360 10357 10352 10347 10343 10339 10335 10330 10326 10321 10317 10312 10307 10303 10298 10292 10286 10280 10275 10268 10259 10249 10238 10226 10215 10206
10481 10473 10463 10455 10445 10434 10425 10416 10408 10399 10391 10382 10374 10367 10360 10354 10349 10345 10340 10336 10333 10330 10326 10322 10318 10313 10309 10305 10301 10297 10293 10287 10281 10276 10271 10266 10259 10251 10241 10230 10218 10207 10198
10467 10457 10448 10437 10428 10419 10410 10401 10392 10383 10375 10367 10359 10352 10347 10341 10336 10332 10329 10325 10321 10317 10314 10310 10306 10303 10299 10295 10291 10287 10282 10276 10271 10267 10262 10256 10250 10243 10234 10224 10213 10201 10191
10454 10443 10434 10423 10414 10404 10394 10384 10376 10368 10360 10352 10346 10341 10335 10330 10325 10321 10318 10315 10311 10308 10305 10301 10297 10293 10289 10285 10281 10276 10271 10266 10261 10257 10252 10247 10241 10235 10228 10218 10208 10198 10188